TimeCDT,TemperatureF,Dew PointF,Humidity,Sea Level PressureIn,VisibilityMPH,Wind Direction,Wind SpeedMPH,Gust SpeedMPH,PrecipitationIn,Events,Conditions,WindDirDegrees,DateUTC
12:58 AM,68.4,56.5,66,29.70,10.0,South,12.7,-,N/A,,Clear,190,2013-04-30 05:58:00
1:58 AM,67.6,56.7,68,29.71,10.0,SSW,15.0,-,N/A,,Clear,200,2013-04-30 06:58:00
2:58 AM,64.8,56.8,75,29.72,10.0,SSW,12.7,-,N/A,,Clear,200,2013-04-30 07:58:00
3:58 AM,63.0,57.6,82,29.74,10.0,SSW,11.5,-,N/A,,Clear,210,2013-04-30 08:58:00
4:58 AM,61.9,58.3,88,29.74,10.0,SSW,10.4,-,N/A,,Clear,200,2013-04-30 09:58:00
5:55 AM,60.8,59.0,94,29.76,10.0,South,10.4,-,N/A,,Scattered Clouds,190,2013-04-30 10:55:00
6:58 AM,61.0,59.9,96,29.78,10.0,SSW,12.7,-,N/A,,Clear,200,2013-04-30 11:58:00
7:58 AM,66.2,59.2,78,29.79,10.0,SSW,15.0,-,N/A,,Clear,210,2013-04-30 12:58:00
8:58 AM,69.6,59.9,71,29.79,10.0,SSW,18.4,28.8,N/A,,Clear,210,2013-04-30 13:58:00
9:59 AM,72.3,59.7,64,29.79,10.0,SW,20.7,26.5,N/A,,Clear,220,2013-04-30 14:59:00
10:55 AM,74.3,59.9,61,29.80,10.0,SW,19.6,-,N/A,,Clear,220,2013-04-30 15:55:00
12:01 PM,77.0,57.7,51,29.79,10.0,SW,25.3,32.2,N/A,,Clear,220,2013-04-30 17:01:00
12:55 PM,77.9,56.7,48,29.78,10.0,SSW,20.7,-,N/A,,Partly Cloudy,200,2013-04-30 17:55:00
1:55 PM,79.7,54.3,41,29.76,10.0,SSW,19.6,-,N/A,,Clear,210,2013-04-30 18:55:00
2:54 PM,80.6,53.6,39,29.79,10.0,SSW,18.4,-,N/A,,Clear,210,2013-04-30 19:54:00
2:55 PM,81.1,53.2,38,29.77,10.0,SSW,18.4,-,N/A,,Clear,210,2013-04-30 19:55:00
3:56 PM,80.6,53.6,39,29.78,10.0,SSW,19.6,27.6,N/A,,Clear,210,2013-04-30 20:56:00
5:04 PM,80.6,57.2,45,29.77,10.0,South,15.0,-,N/A,,Scattered Clouds,190,2013-04-30 22:04:00
6:08 PM,78.8,57.2,47,29.79,10.0,South,11.5,-,N/A,,Scattered Clouds,190,2013-04-30 23:08:00
6:55 PM,77.0,57.2,50,29.78,10.0,South,10.4,-,N/A,,Scattered Clouds,170,2013-04-30 23:55:00
7:58 PM,71.2,53.8,54,29.79,10.0,South,5.8,-,N/A,,Scattered Clouds,180,2013-05-01 00:58:00
8:58 PM,71.4,52.0,50,29.81,10.0,SSE,8.1,-,N/A,,Scattered Clouds,160,2013-05-01 01:58:00
9:58 PM,71.1,50.4,48,29.84,10.0,SSE,8.1,-,N/A,,Scattered Clouds,160,2013-05-01 02:58:00
10:58 PM,68.7,50.5,52,29.86,10.0,SSE,9.2,-,N/A,,Scattered Clouds,160,2013-05-01 03:58:00
11:58 PM,66.9,49.8,54,29.87,10.0,South,8.1,-,N/A,,Clear,170,2013-05-01 04:58:00